DECAYED
Showing default

FLOCK 4Q 32, 58310 (Decayed)

Orbit data source: Space-Track

FLOCK 4Q 32, 58310 was a payload satellite owned by Planet (US) in LEO that was launched on Sat, 11 Nov 2023 UTC via an FALCON 9 launch vehicle from the Air Force Western Test Range (AFWTR). Payload-class satellites include a variety of spacecraft equipped with specific instruments for various scientific and technological missions. These include communications satellites like Starlink; space stations such as the ISS; scientific satellites like the Hubble; Earth observation satellites from companies like Planet Labs, Umbra, and HawkEye 360; GPS; miniature CubeSats for education and research; and military/defense satellites.

Not visible in the next 10 days
Identifier
58310, 2023-174BG
Orbit
Decayed
Country
Flag of USUS
Related business
Manufacturer
Planet
Mission
Decayed Commercial Imaging
Bus & Motor
CUBESAT 3U, Unknown motor
Mass
5.7 kg wet, 5.7 kg dry
Launch date (UTC)
2023-11-11 (3 years ago)
Launch vehicle
FALCON 9
Launch site
Air Force Western Test Range (AFWTR)
Object type
Payload
Rocket body
Debris
Shape & HBR
Box + 2 Pan, 1.0 m
Radar Cross Section
0.072 m², Medium (>0.1 m² and < 1m²)

Expand to show TLE details & history
Last TLE update: 1 year ago

TLE from 1 year ago
0 FLOCK 4Q 32
1 58310U 23174BG  25097.19717382  .05679876  24454-5  23669-2 0  9995
2 58310  97.3877 185.3859 0014255 271.4364  88.5293 16.22853182 79125
Epoch: 2025-04-07T04:43Z
TLE epoch observation values (Epoch: 2025-04-07T04:43:55.818Z)
Latitude
-0.00003°
Longitude
-81.31273°
Altitude
214.818 km
Speed
7.778 km/s
True Right ascension
12h 21m 32s
True Declination
0° 00' 00"
Sunlit
Object was in full shadow at epoch
Visualization orbit readout
Latitude
Unknown
Longitude
Unknown
Altitude
Unknown
Speed
Unknown
Apparent Right ascension
Unknown
Apparent Declination
Unknown
Sunlit
N/A
Visualization observer readout
Local Sidereal Time
21:40:31
Azimuth
Unknown
Elevation
Unknown
Doppler factor
Unknown
Orbital elements
Apogee altitude
218.035 km
Perigee altitude
199.256 km
Semi-major axis
6,586.783 km
Eccentricity
0.00143
Inclination
97.3877°
RAAN
185.3859°
Arg. of periapsis
271.4364°
True anomaly
88.6926°
Mean anomaly
88.5293°
Eccentric anomaly
88.61095°
Mean motion
4.06007 °/min
Orbital period
88.67 mins
BSTAR
0.0023669
Loading maneuver chart data...
Computing Atmospheric mass density...

Documentation

Showing up to 5 results
|